• In India
  • List of Countries
  • For 7 days
  • Water Temperature
  • Satellite Maps
  • Weather Map
  • Weather Widgets
  • user-avatar
    Login

    Hourly Weather Ancuya

    Today, 23 October, Tuesday

    Time Temperature Precipitation Wind Pressure Humidity
    00:00 +18°C° 0.1 mm 1 mps 624 mmHg 90%
    01:00 +18°C° 0 mm 1 mps 624 mmHg 89%
    02:00 +18°C° 0 mm 1 mps 624 mmHg 89%
    03:00 +16°C° 0 mm 1 mps 624 mmHg 89%
    04:00 +16°C° 0 mm 1 mps 623 mmHg 88%
    05:00 +18°C° 0 mm 1 mps 624 mmHg 85%
    06:00 +18°C° 0 mm 1 mps 624 mmHg 82%
    07:00 +19°C° 0 mm 1 mps 625 mmHg 78%
    08:00 +21°C° 0 mm 1 mps 625 mmHg 70%
    09:00 +23°C° 0 mm 1 mps 626 mmHg 62%
    10:00 +25°C° 0 mm 2 mps 627 mmHg 54%
    11:00 +25°C° 0.1 mm 2 mps 626 mmHg 55%
    12:00 +26°C° 0.1 mm 2 mps 626 mmHg 56%
    13:00 +26°C° 0.1 mm 3 mps 625 mmHg 56%
    14:00 +25°C° 0.4 mm 3 mps 625 mmHg 62%
    15:00 +24°C° 0.4 mm 2 mps 624 mmHg 68%
    16:00 +23°C° 0.4 mm 2 mps 624 mmHg 74%
    17:00 +21°C° 0.6 mm 2 mps 624 mmHg 80%
    18:00 +20°C° 0.6 mm 2 mps 623 mmHg 87%
    19:00 +19°C° 0.6 mm 1 mps 623 mmHg 94%
    20:00 +19°C° 0.4 mm 1 mps 624 mmHg 93%
    21:00 +19°C° 0.4 mm 1 mps 625 mmHg 92%
    22:00 +19°C° 0.4 mm 1 mps 625 mmHg 92%
    23:00 +19°C° 0.2 mm 1 mps 625 mmHg 91%

    Tomorrow, 24 October, Wednesday

    Time Temperature Precipitation Wind Pressure Humidity
    00:00 +18°C° 0.2 mm 1 mps 625 mmHg 90%
    01:00 +18°C° 0.2 mm 1 mps 624 mmHg 90%
    02:00 +18°C° 0.1 mm 1 mps 624 mmHg 89%
    03:00 +18°C° 0.1 mm 1 mps 624 mmHg 89%
    04:00 +18°C° 0.1 mm 1 mps 624 mmHg 88%
    05:00 +18°C° 0 mm 1 mps 624 mmHg 86%
    06:00 +19°C° 0 mm 1 mps 624 mmHg 84%
    07:00 +19°C° 0 mm 1 mps 625 mmHg 83%
    08:00 +21°C° 0 mm 1 mps 625 mmHg 75%
    09:00 +23°C° 0 mm 1 mps 626 mmHg 67%
    10:00 +25°C° 0 mm 2 mps 627 mmHg 60%
    11:00 +25°C° 0.3 mm 2 mps 626 mmHg 62%
    12:00 +25°C° 0.3 mm 2 mps 626 mmHg 64%
    13:00 +25°C° 0.3 mm 2 mps 625 mmHg 66%
    14:00 +24°C° 0.7 mm 2 mps 624 mmHg 71%
    15:00 +23°C° 0.7 mm 2 mps 624 mmHg 76%
    16:00 +21°C° 0.7 mm 2 mps 623 mmHg 81%
    17:00 +20°C° 0.9 mm 2 mps 623 mmHg 85%
    18:00 +20°C° 0.9 mm 1 mps 623 mmHg 90%
    19:00 +19°C° 0.9 mm 1 mps 623 mmHg 94%
    20:00 +19°C° 0.8 mm 1 mps 624 mmHg 94%
    21:00 +19°C° 0.8 mm 1 mps 624 mmHg 94%
    22:00 +19°C° 0.8 mm 1 mps 625 mmHg 94%
    23:00 +19°C° 0.4 mm 1 mps 625 mmHg 94%

    Day after tomorrow, 25 October, Thursday

    Time Temperature Precipitation Wind Pressure Humidity
    00:00 +19°C° 0.4 mm 1 mps 624 mmHg 94%
    01:00 +19°C° 0.4 mm 1 mps 624 mmHg 94%
    02:00 +19°C° 0.2 mm 1 mps 624 mmHg 94%
    03:00 +18°C° 0.2 mm 1 mps 623 mmHg 93%
    04:00 +18°C° 0.2 mm 1 mps 623 mmHg 92%
    05:00 +18°C° 0.2 mm 1 mps 623 mmHg 90%
    06:00 +19°C° 0.2 mm 1 mps 624 mmHg 88%
    07:00 +19°C° 0.2 mm 1 mps 624 mmHg 86%
    08:00 +20°C° 0.1 mm 1 mps 625 mmHg 79%
    09:00 +22°C° 0.1 mm 1 mps 626 mmHg 72%
    10:00 +24°C° 0.1 mm 1 mps 627 mmHg 66%
    11:00 +24°C° 0.3 mm 2 mps 626 mmHg 66%
    12:00 +24°C° 0.3 mm 2 mps 625 mmHg 66%
    13:00 +25°C° 0.3 mm 2 mps 625 mmHg 66%
    14:00 +24°C° 1.1 mm 2 mps 624 mmHg 70%
    15:00 +23°C° 1.1 mm 2 mps 623 mmHg 75%
    16:00 +21°C° 1.1 mm 2 mps 623 mmHg 80%
    17:00 +21°C° 0.9 mm 1 mps 623 mmHg 85%
    18:00 +20°C° 0.9 mm 1 mps 623 mmHg 89%
    19:00 +19°C° 0.9 mm 1 mps 623 mmHg 94%
    20:00 +17°C° 0.6 mm 0 mps 624 mmHg 94%
    21:00 +17°C° 0.6 mm 0 mps 624 mmHg 94%
    22:00 +17°C° 0.6 mm 0 mps 624 mmHg 95%
    23:00 +17°C° 0.5 mm 0 mps 624 mmHg 95%

    26 October, Friday

    Time Temperature Precipitation Wind Pressure Humidity
    00:00 +17°C° 0.5 mm 0 mps 624 mmHg 95%
    01:00 +17°C° 0.5 mm 0 mps 623 mmHg 95%
    02:00 +17°C° 0.5 mm 0 mps 623 mmHg 95%
    03:00 +17°C° 0.5 mm 0 mps 623 mmHg 96%
    04:00 +16°C° 0.5 mm 0 mps 623 mmHg 96%
    05:00 +17°C° 0.3 mm 0 mps 623 mmHg 94%
    06:00 +17°C° 0.3 mm 0 mps 624 mmHg 92%
    07:00 +17°C° 0.3 mm 0 mps 624 mmHg 91%
    08:00 +20°C° 0.1 mm 1 mps 625 mmHg 86%
    09:00 +21°C° 0.1 mm 1 mps 625 mmHg 81%
    10:00 +21°C° 0.1 mm 2 mps 626 mmHg 76%
    11:00 +23°C° 0.4 mm 2 mps 625 mmHg 75%
    12:00 +23°C° 0.4 mm 2 mps 625 mmHg 75%
    13:00 +23°C° 0.4 mm 2 mps 624 mmHg 74%
    14:00 +23°C° 0.7 mm 2 mps 624 mmHg 76%
    15:00 +21°C° 0.7 mm 2 mps 623 mmHg 78%
    16:00 +22°C° 0.7 mm 1 mps 623 mmHg 80%
    17:00 +21°C° 0.9 mm 1 mps 623 mmHg 84%
    18:00 +20°C° 0.9 mm 1 mps 623 mmHg 88%
    19:00 +20°C° 0.9 mm 1 mps 624 mmHg 92%
    20:00 +19°C° 0.6 mm 1 mps 624 mmHg 92%
    21:00 +19°C° 0.6 mm 1 mps 624 mmHg 92%
    22:00 +19°C° 0.6 mm 1 mps 625 mmHg 93%
    23:00 +19°C° 0.4 mm 1 mps 624 mmHg 93%

    27 October, Saturday

    Time Temperature Precipitation Wind Pressure Humidity
    00:00 +19°C° 0.4 mm 1 mps 624 mmHg 93%
    01:00 +19°C° 0.4 mm 1 mps 623 mmHg 93%
    02:00 +17°C° 0.2 mm 0 mps 623 mmHg 93%
    03:00 +16°C° 0.2 mm 0 mps 623 mmHg 93%
    04:00 +16°C° 0.2 mm 0 mps 623 mmHg 94%
    05:00 +19°C° 0 mm 1 mps 623 mmHg 91%
    06:00 +19°C° 0 mm 1 mps 624 mmHg 89%
    07:00 +19°C° 0 mm 1 mps 625 mmHg 87%
    08:00 +21°C° 0 mm 1 mps 625 mmHg 80%
    09:00 +23°C° 0 mm 2 mps 626 mmHg 73%
    10:00 +24°C° 0 mm 2 mps 627 mmHg 66%
    11:00 +24°C° 0.3 mm 2 mps 626 mmHg 66%
    12:00 +24°C° 0.3 mm 2 mps 626 mmHg 66%
    13:00 +25°C° 0.3 mm 2 mps 625 mmHg 67%
    14:00 +24°C° 1.1 mm 2 mps 624 mmHg 70%
    15:00 +23°C° 1.1 mm 2 mps 624 mmHg 73%
    16:00 +23°C° 1.1 mm 2 mps 623 mmHg 76%
    17:00 +21°C° 0.7 mm 2 mps 624 mmHg 81%
    18:00 +20°C° 0.7 mm 1 mps 624 mmHg 86%
    19:00 +19°C° 0.7 mm 1 mps 624 mmHg 91%
    20:00 +19°C° 0.3 mm 1 mps 624 mmHg 90%
    21:00 +19°C° 0.3 mm 1 mps 625 mmHg 89%
    22:00 +19°C° 0.3 mm 1 mps 625 mmHg 88%
    23:00 +18°C° 0.1 mm 1 mps 625 mmHg 87%

    28 October, Sunday

    Time Temperature Precipitation Wind Pressure Humidity
    00:00 +18°C° 0.1 mm 1 mps 624 mmHg 85%
    01:00 +18°C° 0.1 mm 1 mps 624 mmHg 84%
    02:00 +18°C° 0 mm 1 mps 623 mmHg 83%
    03:00 +16°C° 0 mm 1 mps 623 mmHg 81%
    04:00 +16°C° 0 mm 1 mps 623 mmHg 80%
    05:00 +18°C° 0 mm 1 mps 624 mmHg 78%
    06:00 +18°C° 0 mm 1 mps 624 mmHg 76%
    07:00 +19°C° 0 mm 1 mps 625 mmHg 74%
    08:00 +20°C° 0 mm 2 mps 626 mmHg 68%
    09:00 +23°C° 0 mm 2 mps 626 mmHg 63%
    10:00 +25°C° 0 mm 3 mps 627 mmHg 57%
    11:00 +25°C° 0.1 mm 3 mps 626 mmHg 59%
    12:00 +25°C° 0.1 mm 2 mps 625 mmHg 61%
    13:00 +25°C° 0.1 mm 2 mps 625 mmHg 63%
    14:00 +24°C° 0.6 mm 2 mps 624 mmHg 67%
    15:00 +24°C° 0.6 mm 2 mps 624 mmHg 70%
    16:00 +23°C° 0.6 mm 2 mps 623 mmHg 74%
    17:00 +21°C° 0.8 mm 2 mps 623 mmHg 80%
    18:00 +20°C° 0.8 mm 1 mps 624 mmHg 85%
    19:00 +19°C° 0.8 mm 1 mps 624 mmHg 91%
    20:00 +19°C° 0.5 mm 1 mps 624 mmHg 91%
    21:00 +19°C° 0.5 mm 1 mps 625 mmHg 91%
    22:00 +19°C° 0.5 mm 1 mps 625 mmHg 91%
    23:00 +18°C° 0.2 mm 1 mps 624 mmHg 90%

    29 October, Monday

    Time Temperature Precipitation Wind Pressure Humidity
    00:00 +18°C° 0.2 mm 1 mps 624 mmHg 90%
    01:00 +18°C° 0.2 mm 1 mps 624 mmHg 90%
    02:00 +18°C° 0.1 mm 1 mps 623 mmHg 89%
    03:00 +16°C° 0.1 mm 1 mps 623 mmHg 89%
    04:00 +16°C° 0.1 mm 1 mps 623 mmHg 88%
    05:00 +18°C° 0.1 mm 1 mps 624 mmHg 85%
    06:00 +18°C° 0.1 mm 1 mps 624 mmHg 83%
    07:00 +19°C° 0.1 mm 1 mps 625 mmHg 80%
    08:00 +21°C° 0.1 mm 1 mps 625 mmHg 75%
    09:00 +23°C° 0.1 mm 2 mps 626 mmHg 69%
    10:00 +24°C° 0.1 mm 2 mps 627 mmHg 64%
    11:00 +24°C° 0.2 mm 2 mps 626 mmHg 64%
    12:00 +25°C° 0.2 mm 2 mps 625 mmHg 65%
    13:00 +25°C° 0.2 mm 2 mps 625 mmHg 66%
    14:00 +24°C° 1.3 mm 2 mps 624 mmHg 71%
    15:00 +23°C° 1.3 mm 2 mps 624 mmHg 76%
    16:00 +21°C° 1.3 mm 2 mps 623 mmHg 81%
    17:00 +21°C° 2 mm 1 mps 623 mmHg 85%
    18:00 +20°C° 2 mm 1 mps 623 mmHg 89%
    19:00 +20°C° 2 mm 1 mps 623 mmHg 93%
    20:00 +19°C° 2.3 mm 1 mps 624 mmHg 93%
    21:00 +19°C° 2.3 mm 1 mps 624 mmHg 92%
    22:00 +19°C° 2.3 mm 1 mps 625 mmHg 92%
    23:00 +19°C° 2.1 mm 1 mps 624 mmHg 93%
    Show more